AirNav   Air Wisconsin pilot careers
 
 871 users online  

U48 Coxs Well Airport
Atomic City, Idaho, USA

GOING TO ATOMIC CITY?


FAA INFORMATION EFFECTIVE 24 MAY 2018

Location

FAA Identifier: U48
Lat/Long: 43-13-03.9000N / 113-13-39.2000W
43-13.065000N / 113-13.653333W
43.2177500 / -113.2275556
(estimated)
Elevation: 5048 ft. / 1539 m (estimated)
Variation: 16E (1985)
From city: 23 miles SW of ATOMIC CITY, ID
Time zone: UTC -6 (UTC -7 during Standard Time)
Zip code: 83210

Airport Operations

Airport use: Open to the public
Activation date: 06/1951
Control tower: no
ARTCC: SALT LAKE CITY CENTER
FSS: BOISE FLIGHT SERVICE STATION
NOTAMs facility: BOI (NOTAM-D service available)
Attendance: UNATNDD
Wind indicator: yes
Segmented circle: yes

Airport Communications

CTAF: 122.9

Nearby radio navigation aids

VOR radial/distance  VOR name  Freq  Var
PIHr293/32.7POCATELLO VOR/DME112.6017E

Airport Services

Parking: tiedowns
Airframe service: NONE
Powerplant service: NONE
Bottled oxygen: NONE
Bulk oxygen: NONE

Runway Information

Runway 7/25

Dimensions: 2700 x 100 ft. / 823 x 30 m
Surface: turf, in good condition
Runway edge markings: 07/25 EDGES & THLDS MKD WITH WHITE ROCK.
Gradient: E
RUNWAY 7  RUNWAY 25
Latitude: 43-13.040833N43-13.089500N
Longitude: 113-13.956000W113-13.351833W
Elevation: 5028.0 ft.5048.0 ft.
Gradient: 0.7% UP0.3%
Traffic pattern: leftleft
Runway heading: 067 magnetic, 083 true247 magnetic, 263 true
Obstructions: 14 ft. road, 80 ft. left of centerline
14' RD AT 50' ON CNTRLN.
7 ft. fence, 170 ft. from runway, 24:1 slope to clear

Airport Ownership and Management from official FAA records

Ownership: Publicly-owned
Owner: STATE OF ID,DIV OF AERO.
P O BOX 7129
BOISE, ID 83707-1129
Phone 208-334-8775
Manager: DIV ADMIN
P OBOX 7129
BOISE, ID 83707-1129
Phone 208-334-8775

Airport Operational Statistics

Aircraft operations: avg 33/month *
100% transient general aviation
* for 12-month period ending 02 June 2016

Additional Remarks

NO WINTER MAINTENANCE.
RY 07/25 SFC MAY BE POOR DUE TO DAMAGE BY LIVESTOCK; GROUND VEHICLES AND RODENTS.

Instrument Procedures

There are no published instrument procedures at U48.

Some nearby airports with instrument procedures:

KAOC - Arco-Butte County Airport (24 nm N)
KPIH - Pocatello Regional Airport (33 nm SE)
U02 - McCarley Field Airport (38 nm E)
KBYI - Burley Municipal Airport (47 nm SW)
KSUN - Friedman Memorial Airport (50 nm W)
 
Loc | Ops | Rwys | IFR | FBO | Links
Com | Nav | Svcs | Stats | Notes

AirNav Hotels Sweepstakes
 
Area around U48 (Coxs Well Airport)
 
Road maps at: MapQuest Bing Google
 
Aerial photo
No photo
 
Sectional chart

 
Airport distance calculator
Flying to Coxs Well Airport? Find the distance to fly.

From to U48

Sunrise and sunset
Times for 24-May-2018
 Local
(UTC-6)
 Zulu
(UTC)
Morning civil twilight05:2811:28
Sunrise06:0212:02
Sunset20:5802:58
Evening civil twilight21:3203:32

Current date and time
Zulu (UTC)  25-May-2018 02:45:45
Local (UTC-6)  24-May-2018 20:45:45
 
METAR
KPIH 
34nm SE 
250153Z 24011KT 10SM CLR 22/08 A3006 RMK AO2 SLP143 T02220083
KBYI 
47nm SW 
250153Z AUTO 27005KT 10SM SCT110 20/11 A3002 RMK AO2 RAE37 TSE02 SLP130 P0001 T02000106
KSUN 
49nm W 
250155Z 00000KT 10SM SCT080 21/07 A3009
TAF
KPIH 
34nm SE 
241720Z 2418/2518 27010KT P6SM VCTS SCT050 BKN110CB FM250300 VRB05KT P6SM SCT100
NOTAMs
Click for the latest NOTAMs
NOTAMs are issued by the DoD/FAA and will open in a separate window not controlled by AirNav.

 

 
 

Would you like to see your business listed on this page?

 If your business provides an interesting product or service to pilots, flight crews, aircraft, or users of the Coxs Well Airport, you should consider listing it here.  To start the listing process, click on the button below
 
Add a business
 

Other Pages about Coxs Well Airport

Update a link
 
Copyright © AirNav, LLC. All rights reserved. Privacy Policy  Contact